Ogallala, NE

5:18 PM MST on December 03, 2016 (GMT -0700)
Searle

Weather History for KOGA - October, 2011

Change the Weather History Date:

Wednesday, October 26, 2011

  Actual Average Record
Temperature  
Mean Temperature 37 °F -  
Max Temperature 41 °F 61 °F 83 °F (2014)
Min Temperature 33 °F 30 °F 3 °F (1997)
Degree Days  
Heating Degree Days 28    
Moisture  
Dew Point 30 °F    
Average Humidity 74    
Maximum Humidity 87    
Minimum Humidity 57    
Precipitation  
Precipitation 0.02 in - - ()
Sea Level Pressure  
Sea Level Pressure 30.21 in    
Wind  
Wind Speed 8 mph (North)    
Max Wind Speed 15 mph    
Max Gust Speed 21 mph    
Visibility 10 miles    
Events Rain    
Averages and records for this station are not official NWS values.
T = Trace of Precipitation, MM = Missing Value Source: NWS Daily Summary

Daily Weather History Graph

Daily Weather History Graph

Search for Another Location

Airport or City:

Trip Planner

Search our weather history database for the weather conditions in past years. The results will help you decide how hot, cold, wet, or windy it might be!

Date:

Astronomy

Oct. 26, 2011 Rise Set
Actual Time 7:10 AM MDT 5:50 PM MDT
Civil Twilight 6:42 AM MDT 6:18 PM MDT
Nautical Twilight 6:10 AM MDT 6:51 PM MDT
Astronomical Twilight 5:38 AM MDT 7:23 PM MDT
Moon 7:01 AM MDT (10/26) 5:33 PM MDT (10/26)
Length of Visible Light 11h 36m
Length of Day
10h 39m
Waning Crescent, 0% of the Moon is Illuminated
Oct 26
Waning Crescent
Oct 26
New
Nov 2
First Quarter
Nov 10
Full
Nov 18
Last Quarter

Hourly Weather History & Observations

Time (MDT) Temp. Windchill Dew Point Humidity Pressure Visibility Wind Dir Wind Speed Gust Speed Precip Events Conditions
12:15 AM 37.4 °F 34.9 °F 33.8 °F 87% 30.21 in 10.0 mi North 3.5 mph - 0.02 in Rain Light Rain
12:35 AM 37.4 °F - 33.8 °F 87% 30.21 in 10.0 mi Calm Calm - 0.02 in Rain Rain
12:55 AM 39.2 °F 35.0 °F 33.8 °F 81% 30.20 in 10.0 mi NNE 5.8 mph - 0.02 in   Drizzle
1:15 AM 39.2 °F 34.2 °F 32.0 °F 75% 30.21 in 10.0 mi NNE 6.9 mph - N/A   Light Drizzle
1:35 AM 39.2 °F 32.5 °F 32.0 °F 75% 30.21 in 10.0 mi NNE 10.4 mph - N/A Rain Light Rain
1:55 AM 37.4 °F 28.5 °F 32.0 °F 81% 30.22 in 10.0 mi North 15.0 mph - N/A Rain Light Rain
2:15 AM 37.4 °F 29.8 °F 32.0 °F 81% 30.21 in 10.0 mi NNE 11.5 mph - N/A Rain Light Rain
2:35 AM 37.4 °F 29.8 °F 32.0 °F 81% 30.21 in 10.0 mi NNE 11.5 mph 17.3 mph N/A   Overcast
2:55 AM 37.4 °F 28.5 °F 30.2 °F 75% 30.20 in 10.0 mi North 15.0 mph 20.7 mph N/A   Overcast
3:15 AM 37.4 °F 28.5 °F 32.0 °F 81% 30.21 in 10.0 mi North 15.0 mph 18.4 mph N/A   Overcast
3:35 AM 37.4 °F 29.8 °F 32.0 °F 81% 30.21 in 10.0 mi North 11.5 mph 16.1 mph N/A   Overcast
3:55 AM 37.4 °F 32.8 °F 32.0 °F 81% 30.21 in 10.0 mi NNW 5.8 mph - N/A   Overcast
5:15 AM 37.4 °F 28.5 °F 30.2 °F 75% 30.20 in 10.0 mi North 15.0 mph 19.6 mph N/A   Overcast
5:35 AM 37.4 °F 30.3 °F 32.0 °F 81% 30.19 in 10.0 mi North 10.4 mph - N/A   Overcast
5:55 AM 35.6 °F 29.9 °F 30.2 °F 81% 30.19 in 10.0 mi North 6.9 mph - N/A   Mostly Cloudy
6:15 AM 35.6 °F 29.9 °F 30.2 °F 81% 30.18 in 10.0 mi North 6.9 mph - N/A   Scattered Clouds
6:35 AM 35.6 °F 29.2 °F 30.2 °F 81% 30.18 in 10.0 mi North 8.1 mph - N/A   Clear
6:55 AM 35.6 °F - 30.2 °F 81% 30.18 in 10.0 mi Calm Calm - N/A   Scattered Clouds
7:15 AM 35.6 °F 29.2 °F 30.2 °F 81% 30.19 in 10.0 mi North 8.1 mph - N/A   Mostly Cloudy
7:35 AM 35.6 °F 27.5 °F 30.2 °F 81% 30.20 in 10.0 mi North 11.5 mph 16.1 mph N/A   Overcast
7:55 AM 35.6 °F 28.0 °F 30.2 °F 81% 30.22 in 10.0 mi North 10.4 mph - N/A   Overcast
8:15 AM 35.6 °F 27.1 °F 30.2 °F 81% 30.23 in 10.0 mi North 12.7 mph 17.3 mph N/A   Overcast
8:35 AM 35.6 °F 28.6 °F 30.2 °F 81% 30.24 in 10.0 mi North 9.2 mph - N/A   Overcast
9:15 AM 35.6 °F 27.5 °F 30.2 °F 81% 30.25 in 10.0 mi North 11.5 mph - N/A   Overcast
9:55 AM 35.6 °F 26.6 °F 32.0 °F 87% 30.25 in 10.0 mi North 13.8 mph - N/A   Overcast
10:15 AM 37.4 °F 30.8 °F 30.2 °F 75% 30.27 in 10.0 mi North 9.2 mph 16.1 mph N/A   Overcast
10:35 AM 37.4 °F 30.3 °F 30.2 °F 75% 30.27 in 10.0 mi North 10.4 mph - N/A   Overcast
10:55 AM 37.4 °F 29.3 °F 30.2 °F 75% 30.26 in 10.0 mi North 12.7 mph - N/A   Overcast
11:15 AM 37.4 °F 30.8 °F 30.2 °F 75% 30.26 in 10.0 mi North 9.2 mph - N/A   Overcast
11:35 AM 39.2 °F 31.2 °F 30.2 °F 70% 30.26 in 10.0 mi NNE 13.8 mph - N/A   Overcast
11:55 AM 39.2 °F 30.8 °F 30.2 °F 70% 30.25 in 10.0 mi North 15.0 mph - N/A   Overcast
12:15 PM 39.2 °F 32.0 °F 30.2 °F 70% 30.25 in 10.0 mi North 11.5 mph - N/A   Overcast
12:35 PM 41.0 °F 33.1 °F 30.2 °F 65% 30.23 in 10.0 mi North 15.0 mph 18.4 mph N/A   Overcast
12:55 PM 41.0 °F 34.3 °F 30.2 °F 65% 30.22 in 10.0 mi NNE 11.5 mph - N/A   Overcast
1:15 PM 41.0 °F 33.9 °F 30.2 °F 65% 30.23 in 10.0 mi NNE 12.7 mph 17.3 mph N/A   Overcast
1:35 PM 41.0 °F 34.7 °F 30.2 °F 65% 30.22 in 10.0 mi North 10.4 mph - N/A   Overcast
1:55 PM 41.0 °F 35.8 °F 30.2 °F 65% 30.21 in 10.0 mi North 8.1 mph - N/A   Overcast
2:15 PM 41.0 °F 35.2 °F 28.4 °F 61% 30.19 in 10.0 mi NNE 9.2 mph - N/A   Overcast
2:35 PM 41.0 °F 35.2 °F 28.4 °F 61% 30.19 in 10.0 mi North 9.2 mph - N/A   Overcast
2:55 PM 41.0 °F 34.7 °F 28.4 °F 61% 30.18 in 10.0 mi North 10.4 mph - N/A   Mostly Cloudy
3:15 PM 41.0 °F 35.8 °F 28.4 °F 61% 30.18 in 10.0 mi North 8.1 mph - N/A   Overcast
3:35 PM 41.0 °F 34.7 °F 26.6 °F 57% 30.19 in 10.0 mi North 10.4 mph - N/A   Mostly Cloudy
4:15 PM 41.0 °F 38.0 °F 26.6 °F 57% 30.18 in 10.0 mi North 4.6 mph - N/A   Mostly Cloudy
4:35 PM 41.0 °F 38.0 °F 26.6 °F 57% 30.17 in 10.0 mi North 4.6 mph - N/A   Scattered Clouds
4:55 PM 41.0 °F 38.0 °F 28.4 °F 61% 30.17 in 10.0 mi North 4.6 mph - N/A   Overcast
5:15 PM 41.0 °F 39.0 °F 28.4 °F 61% 30.18 in 10.0 mi NNE 3.5 mph - N/A   Overcast
5:55 PM 41.0 °F - 28.4 °F 61% 30.18 in 10.0 mi Calm Calm - N/A   Mostly Cloudy
6:15 PM 37.4 °F - 28.4 °F 70% 30.18 in 10.0 mi Calm Calm - N/A   Scattered Clouds
6:35 PM 37.4 °F - 28.4 °F 70% 30.19 in 10.0 mi Calm Calm - N/A   Mostly Cloudy
6:55 PM 37.4 °F - 28.4 °F 70% 30.18 in 10.0 mi Calm Calm - N/A   Scattered Clouds
7:15 PM 35.6 °F - 30.2 °F 81% 30.18 in 10.0 mi Calm Calm - N/A   Clear
7:35 PM 35.6 °F 32.8 °F 28.4 °F 75% 30.18 in 10.0 mi NNW 3.5 mph - N/A   Clear
7:55 PM 35.6 °F - 28.4 °F 75% 30.19 in 10.0 mi Calm Calm - N/A   Scattered Clouds
8:15 PM 33.8 °F - 30.2 °F 87% 30.19 in 10.0 mi Calm Calm - N/A   Scattered Clouds
8:35 PM 33.8 °F - 30.2 °F 87% 30.20 in 10.0 mi Calm Calm - N/A   Clear
8:55 PM 33.8 °F - 28.4 °F 81% 30.20 in 10.0 mi Calm Calm - N/A   Clear
9:15 PM 32.0 °F - 28.4 °F 87% 30.20 in 10.0 mi Calm Calm - N/A   Clear
9:35 PM 32.0 °F - 28.4 °F 87% 30.20 in 10.0 mi Calm Calm - N/A   Clear
9:55 PM 30.2 °F 26.7 °F 26.6 °F 86% 30.20 in 10.0 mi West 3.5 mph - N/A   Clear
10:15 PM 30.2 °F 24.3 °F 26.6 °F 86% 30.21 in 10.0 mi West 5.8 mph - N/A   Clear
10:35 PM 28.4 °F - 24.8 °F 86% 30.21 in 10.0 mi Calm Calm - N/A   Clear
10:55 PM 28.4 °F 23.3 °F 26.6 °F 93% 30.21 in 10.0 mi SW 4.6 mph - N/A   Clear
11:15 PM 28.4 °F 23.3 °F 26.6 °F 93% 30.21 in 10.0 mi WSW 4.6 mph - N/A   Clear
11:35 PM 28.4 °F 22.2 °F 26.6 °F 93% 30.20 in 10.0 mi WSW 5.8 mph - N/A   Clear
11:55 PM 28.4 °F 22.2 °F 26.6 °F 93% 30.20 in 10.0 mi WSW 5.8 mph - N/A   Clear